| Date | Time | Temp. (oF) | Dew Point (oF) | Rel. Hum. (%) | Press. (in.) | Wind Dir. | Wind Speed (mph) | Hourly Rainfall (in.) |
|
|---|---|---|---|---|---|---|---|---|---|
| 1 | 06/02 | 00:00 | 71 | 67 | 90 | 29.83 | WSW | 0 | 0.00 |
| 2 | 06/01 | 23:00 | 72 | 67 | 87 | 29.83 | SW | 0 | 0.00 |
| 3 | 06/01 | 22:00 | 73 | 66 | 79 | 29.82 | WNW | 0 | 0.00 |
| 4 | 06/01 | 21:00 | 77 | 66 | 70 | 29.80 | WNW | 0 | 0.00 |
| 5 | 06/01 | 20:00 | 80 | 66 | 63 | 29.79 | NW | 2 | 0.00 |
| 6 | 06/01 | 19:00 | 83 | 67 | 60 | 29.77 | WNW | 3 | 0.00 |
| 7 | 06/01 | 18:00 | 82 | 66 | 60 | 29.77 | NNW | 7 | 0.00 |
| 8 | 06/01 | 17:00 | 82 | 66 | 60 | 29.77 | NNW | 6 | 0.00 |
| 9 | 06/01 | 16:00 | 83 | 68 | 62 | 29.77 | N | 5 | 0.00 |
| 10 | 06/01 | 15:00 | 82 | 68 | 63 | 29.77 | W | 7 | 0.00 |
| 11 | 06/01 | 14:00 | 83 | 71 | 69 | 29.79 | SW | 6 | 0.00 |
| 12 | 06/01 | 13:00 | 80 | 69 | 70 | 29.81 | W | 8 | 0.00 |
| 13 | 06/01 | 12:00 | 80 | 70 | 73 | 29.82 | SW | 5 | 0.00 |
| 14 | 06/01 | 11:00 | 77 | 68 | 76 | 29.83 | SW | 4 | 0.00 |
| 15 | 06/01 | 10:00 | 78 | 69 | 75 | 29.84 | WSW | 6 | 0.00 |
| 16 | 06/01 | 09:00 | 75 | 69 | 82 | 29.85 | SW | 5 | 0.00 |
| 17 | 06/01 | 08:00 | 72 | 68 | 88 | 29.85 | SW | 3 | 0.00 |
| 18 | miss | miss | miss | miss | miss | miss | miss | miss | |
| 19 | 06/01 | 07:18 | 72 | 67 | 87 | 29.85 | SSW | 5 | 0.00 |
| 20 | miss | miss | miss | miss | miss | miss | miss | miss | |
| 21 | 06/01 | 07:16 | 71 | 66 | 87 | 29.85 | SSW | 6 | 0.00 |
| 22 | miss | miss | miss | miss | miss | miss | miss | miss | |
| 23 | 06/01 | 07:14 | 71 | 66 | 87 | 29.85 | SW | 4 | 0.00 |
| 24 | miss | miss | miss | miss | miss | miss | miss | miss | |
| 25 | 06/01 | 07:12 | 71 | 66 | 87 | 29.85 | SSW | 7 | 0.00 |
| 26 | miss | miss | miss | miss | miss | miss | miss | miss | |
| 27 | 06/01 | 07:12 | 71 | 66 | 87 | 29.85 | SSW | 7 | 0.00 |
| 28 | miss | miss | miss | miss | miss | miss | miss | miss | |
| 29 | 06/01 | 07:12 | 71 | 66 | 87 | 29.85 | SSW | 7 | 0.00 |
| 30 | miss | miss | miss | miss | miss | miss | miss | miss | |
| 31 | 06/01 | 07:12 | 71 | 66 | 87 | 29.85 | SSW | 7 | 0.00 |
| 32 | miss | miss | miss | miss | miss | miss | miss | miss | |
| 33 | 06/01 | 07:12 | 71 | 66 | 87 | 29.85 | SSW | 7 | 0.00 |
| 34 | miss | miss | miss | miss | miss | miss | miss | miss | |
| 35 | 06/01 | 07:12 | 71 | 66 | 87 | 29.85 | SSW | 7 | 0.00 |
| 36 | miss | miss | miss | miss | miss | miss | miss | miss | |
| 37 | 06/01 | 07:12 | 71 | 66 | 87 | 29.85 | SSW | 7 | 0.00 |
| 38 | miss | miss | miss | miss | miss | miss | miss | miss | |
| 39 | 06/01 | 07:12 | 71 | 66 | 87 | 29.85 | SSW | 7 | 0.00 |
| 40 | miss | miss | miss | miss | miss | miss | miss | miss | |
| 41 | 06/01 | 07:12 | 71 | 66 | 87 | 29.85 | SSW | 7 | 0.00 |
| 42 | miss | miss | miss | miss | miss | miss | miss | miss | |
| 43 | 06/01 | 07:00 | 71 | 67 | 88 | 29.84 | SSW | 6 | 0.00 |
| 44 | 06/01 | 06:59 | 71 | 67 | 88 | 29.84 | SSW | 7 | 0.00 |
| 45 | 06/01 | 06:58 | 70 | 65 | 87 | 29.84 | SW | 6 | 0.00 |
| 46 | 06/01 | 06:57 | 70 | 66 | 88 | 2984.00 | SSW | 4 | 0.00 |
| 47 | 06/01 | 06:56 | 70 | 66 | 88 | 29.84 | SW | 3 | 0.00 |
| 48 | 06/01 | 06:55 | 70 | 66 | 88 | 29.84 | SW | 7 | 0.00 |
| 49 | miss | miss | miss | miss | miss | miss | miss | miss | |
| 50 | 06/01 | 06:54 | 70 | 66 | 88 | 29.84 | SSW | 5 | 0.00 |
| 51 | miss | miss | miss | miss | miss | miss | miss | miss | |
| 52 | 06/01 | 06:54 | 70 | 66 | 88 | 29.84 | SSW | 5 | 0.00 |
| 53 | miss | miss | miss | miss | miss | miss | miss | miss | |
| 54 | 06/01 | 06:54 | 70 | 66 | 88 | 29.84 | SSW | 5 | 0.00 |
| 55 | miss | miss | miss | miss | miss | miss | miss | miss | |
| 56 | 06/01 | 06:54 | 70 | 66 | 88 | 29.84 | SSW | 5 | 0.00 |
| 57 | miss | miss | miss | miss | miss | miss | miss | miss | |
| 58 | 06/01 | 06:54 | 70 | 66 | 88 | 29.84 | SSW | 5 | 0.00 |
| 59 | miss | miss | miss | miss | miss | miss | miss | miss | |
| 60 | 06/01 | 06:54 | 70 | 66 | 88 | 29.84 | SSW | 5 | 0.00 |
| 61 | miss | miss | miss | miss | miss | miss | miss | miss | |
| 62 | 06/01 | 06:54 | 70 | 66 | 88 | 29.84 | SSW | 5 | 0.00 |
| 63 | miss | miss | miss | miss | miss | miss | miss | miss | |
| 64 | 06/01 | 06:54 | 70 | 66 | 88 | 29.84 | SSW | 5 | 0.00 |
| 65 | miss | miss | miss | miss | miss | miss | miss | miss | |
| 66 | 06/01 | 06:54 | 70 | 66 | 88 | 29.84 | SSW | 5 | 0.00 |
| 67 | 06/01 | 06:00 | 70 | 66 | 88 | 29.84 | SSW | 2 | 0.00 |
| 68 | 06/01 | 05:00 | 70 | 66 | 89 | 29.83 | SSW | 4 | 0.00 |
| 69 | 06/01 | 04:00 | 70 | 67 | 91 | 29.84 | SSW | 1 | 0.00 |
| 70 | 06/01 | 03:00 | 69 | 68 | 99 | 29.85 | SSW | 3 | 0.00 |
| 71 | 06/01 | 02:00 | 68 | 68 | 100 | 29.86 | WSW | 0 | 0.00 |
| 72 | 06/01 | 01:00 | 66 | 66 | 100 | 29.88 | NE | 0 | 0.00 |
| 73 | 06/01 | 00:00 | 66 | 66 | 100 | 29.90 | NE | 0 | 0.00 |
| 74 | 05/31 | 23:00 | 67 | 67 | 100 | 29.90 | ENE | 0 | 0.00 |
| 75 | 05/31 | 22:00 | 67 | 66 | 99 | 29.90 | NNE | 0 | 0.00 |
| 76 | 05/31 | 21:00 | 67 | 66 | 98 | 29.88 | SW | 0 | 0.00 |
| 77 | 05/31 | 20:00 | 67 | 66 | 97 | 29.89 | SW | 0 | 0.31 |
| 78 | 05/31 | 19:00 | 67 | 65 | 96 | 29.96 | W | 5 | 0.65 |
| 79 | 05/31 | 18:00 | 69 | 66 | 92 | 29.91 | ENE | 12 | 0.95 |
| 80 | 05/31 | 17:00 | 74 | 67 | 81 | 29.88 | SE | 7 | 0.27 |
| 81 | 05/31 | 16:00 | 87 | 73 | 65 | 29.87 | SE | 7 | 0.00 |
| 82 | 05/31 | 15:00 | 90 | 75 | 63 | 29.89 | SSW | 7 | 0.00 |
| 83 | 05/31 | 14:00 | 86 | 72 | 64 | 29.91 | SSW | 2 | 0.00 |
| 84 | 05/31 | 13:00 | 89 | 72 | 58 | 29.94 | SW | 5 | 0.00 |
| 85 | 05/31 | 12:00 | 88 | 73 | 62 | 29.95 | SW | 4 | 0.00 |
| 86 | 05/31 | 11:00 | 85 | 71 | 65 | 29.97 | SW | 5 | 0.00 |
| 87 | 05/31 | 10:00 | 82 | 70 | 68 | 29.98 | S | 4 | 0.00 |
| 88 | 05/31 | 09:00 | 78 | 69 | 76 | 29.99 | S | 1 | 0.00 |
| 89 | 05/31 | 08:00 | 69 | 65 | 90 | 29.99 | SSE | 1 | 0.00 |
| 90 | 05/31 | 07:00 | 64 | 62 | 96 | 29.99 | N | 0 | 0.00 |
| 91 | 05/31 | 06:00 | 63 | 61 | 95 | 29.98 | NNE | 0 | 0.00 |
| 92 | 05/31 | 05:00 | 63 | 60 | 93 | 29.97 | N | 0 | 0.00 |
| 93 | 05/31 | 04:00 | 64 | 61 | 90 | 29.96 | W | 0 | 0.00 |
| 94 | 05/31 | 03:00 | 65 | 61 | 88 | 29.96 | WSW | 0 | 0.00 |
| 95 | 05/31 | 02:00 | 66 | 61 | 85 | 29.96 | WSW | 0 | 0.00 |
| 96 | 05/31 | 01:00 | 68 | 61 | 81 | 29.96 | WSW | 0 | 0.00 |
| 97 | 05/31 | 00:00 | 70 | 62 | 77 | 29.95 | SW | 0 | -2.18 |